Regional Weather Roundup
Issued by NWS

Home | Current Version | Previous Version | Text Only | Print | Product List | Glossary On
Versions: 1 2 3 4 5 6 7 8 9 10 11 12 13 14 15 16 17 18 19 20 21 22 23 24 25 26 27 28 29 30 31 32 33 34 35 36 37 38 39 40 41 42 43 44 45 46 47 48 49 50
000
ASUS45 KABQ 270410
RWRNM
NEW MEXICO REGIONAL WEATHER ROUNDUP
NATIONAL WEATHER SERVICE ALBUQUERQUE NM
1000 PM MDT SUN MAR 26 2017

NOTE: "FAIR" MEANS FEW OR NO CLOUDS BELOW 12,000 FEET AGL WITH NO
       SIGNIFICANT WEATHER OR OBSTRUCTIONS TO VISION.

      THIS PRODUCT IS RELEASED AS TWO VERSIONS.  ONE VERSION NEAR
      THE TOP OF THE HOUR CONTAINING PRELIMINARY DATA FROM ALBUQUERQUE
      AND OTHER STATIONS.  A FINAL VERSION WITH ADDITIONAL DATA IS
      ISSUED ABOUT 10 MINUTES AFTER THE HOUR.

NMZ501-503-504-510>518-270500-
NORTHWEST PLATEAU/NORTHCENTRAL MOUNTAINS

CITY           SKY/WX    TMP DP  RH WIND       PRES   REMARKS
FARMINGTON     FAIR      49  27  42 CALM      29.99R
LOS ALAMOS     FAIR      46  23  39 W8        30.05S
SANTA FE       FAIR      44  25  47 N7        30.02R
TAOS             N/A     37  25  60 E3        30.04R
ANGEL FIRE     MOCLDY    36  27  71 SE3       30.07R

$$
NMZ402-403-502-505>509-270500-
WESTCENTRAL MOUNTAINS/SOUTHWEST MOUNTAINS

CITY           SKY/WX    TMP DP  RH WIND       PRES   REMARKS
GALLUP         FAIR      45  28  51 CALM      30.06R
GRANTS         FAIR      47  23  38 W12       30.07R
SILVER CITY    FAIR      50  19  28 N10       30.05R

$$
NMZ407-409-411-412-270500-
SOUTHERN DESERTS

CITY           SKY/WX    TMP DP  RH WIND       PRES   REMARKS
DEMING         FAIR      57  20  23 W9        29.99R
LAS CRUCES     FAIR      61  16  17 W12       29.99R
HOLLOMAN AFB   FAIR      59  19  20 S6        29.99R
ALAMOGORDO     FAIR      55  25  30 SE7       29.97R
T OR C         FAIR      61  19  19 NW5       29.97R

$$
NMZ519>523-270500-
CENTRAL VALLEYS/CENTRAL HIGHLANDS

CITY           SKY/WX    TMP DP  RH WIND       PRES   REMARKS
ALBUQUERQUE    FAIR      56  23  27 N6        30.01R
DOUBLE EAGLE   CLEAR     46  25  42 NW8       30.02R
MORIARTY ARPT  FAIR      49  23  36 NW5       30.04R
CLINES CORNERS FAIR      44  22  41 CALM      30.06R
BELEN          FAIR      50  21  32 NW7       30.01R
SOCORRO        FAIR      59  15  17 N8        29.98R

$$
NMZ524>526-539-540-270500-
SOUTHCENTRAL MOUNTAINS

CITY           SKY/WX    TMP DP  RH WIND       PRES   REMARKS
RUIDOSO        FAIR      48   9  20 W9        30.08R

$$
NMZ527>531-270500-
NORTHEAST HIGHLANDS/NORTHEAST PLAINS

CITY           SKY/WX    TMP DP  RH WIND       PRES   REMARKS
LAS VEGAS      FAIR      42  27  55 E14       30.03R
RATON          FAIR      41  34  76 NE9       30.00R
CLAYTON        FAIR      41  36  82 NE17G25   29.98R

$$
NMZ532>537-270500-
EASTCENTRAL PLAINS

CITY           SKY/WX    TMP DP  RH WIND       PRES   REMARKS
TUCUMCARI      FAIR      53  35  50 NE13      29.95R
CANNON AFB     FAIR      51  36  56 N13       29.95R
CLOVIS AIRPORT FAIR      48  34  57 N7        29.95R

$$
NMZ028-029-538-270500-
SOUTHEAST PLAINS

CITY           SKY/WX    TMP DP  RH WIND       PRES   REMARKS
ROSWELL        FAIR      62  14  15 NW6         N/A
ARTESIA        FAIR      59  14  17 W12       29.91R
CARLSBAD       FAIR      62  17  17 W14       29.89R
HOBBS          FAIR      52  14  22 W8        29.92R


$$



USA.gov is the U.S. government's official web portal to all federal, state and local government web resources and services.